Location: Wapato
(46.4478°N, 120.4212°W)
Time: 09:09:40
(UTC+00:00)

Injun/Solrad 3 - Pass Details

Date: 19 May 2026
Orbit: 867 x 989 km, 66.8° (Epoch: 10 June)

Event Time Altitude Azimuth Distance (km) Brightness Sun altitude
Rises 04:23:37 0° 323° (NW) 3,652 13.0 -8.0°
Reaches altitude 10° 04:27:35 10° 347° (NNW) 2,726 11.3 -8.5°
Maximum altitude 04:30:58 15° 19° (NNE) 2,418 10.4 -9.0°
Drops below altitude 10° 04:34:22 10° 51° (NE) 2,748 10.3 -9.4°
Sets 04:38:22 0° 75° (ENE) 3,701 10.7 -9.9°
